Location: Le Moustier
(44.1000°N, 6.5167°E)
Time: 09:28:28
(UTC+00:00)

NOSS 2-3 (C) - Pass Details

Date: 13 December 2025
Orbit: 458 x 1718 km, 63.3° (Epoch: 21 January)

Event Time Altitude Azimuth Distance (km) Brightness Sun altitude
Rises 16:37:59 0° 204° (SSW) 2,549 7.6 -7.5°
Reaches altitude 10° 16:40:10 10° 198° (SSW) 1,618 6.4 -7.8°
Maximum altitude 16:43:31 49° 122° (ESE) 596 3.3 -8.4°
Enters shadow 16:46:50 11° 47° (NE) 1,604 5.1 -8.9°
